Hourly Weather Ibi

Today, 11 July, Saturday

Time Temperature Precipitation Wind Pressure Humidity
00:00 +21°C° 0 mm 1 mps 690 mmHg 74%
01:00 +21°C° 0 mm 1 mps 690 mmHg 75%
02:00 +20°C° 0 mm 1 mps 689 mmHg 76%
03:00 +20°C° 0 mm 1 mps 689 mmHg 77%
04:00 +19°C° 0 mm 2 mps 689 mmHg 78%
05:00 +20°C° 0 mm 2 mps 690 mmHg 78%
06:00 +20°C° 0 mm 3 mps 690 mmHg 79%
07:00 +21°C° 0 mm 3 mps 691 mmHg 74%
08:00 +22°C° 0 mm 3 mps 691 mmHg 69%
09:00 +23°C° 0 mm 4 mps 692 mmHg 64%
10:00 +26°C° 0 mm 4 mps 692 mmHg 57%
11:00 +27°C° 0 mm 4 mps 693 mmHg 51%
12:00 +29°C° 0 mm 5 mps 693 mmHg 44%
13:00 +29°C° 0 mm 5 mps 693 mmHg 45%
14:00 +29°C° 0 mm 5 mps 692 mmHg 46%
15:00 +29°C° 0 mm 6 mps 692 mmHg 48%
16:00 +28°C° 0 mm 5 mps 692 mmHg 51%
17:00 +27°C° 0 mm 5 mps 692 mmHg 54%
18:00 +26°C° 0 mm 4 mps 691 mmHg 57%
19:00 +24°C° 0 mm 3 mps 691 mmHg 64%
20:00 +22°C° 0 mm 3 mps 691 mmHg 72%
21:00 +21°C° 0 mm 2 mps 691 mmHg 80%
22:00 +20°C° 0 mm 2 mps 691 mmHg 81%
23:00 +20°C° 0 mm 2 mps 691 mmHg 82%

Tomorrow, 12 July, Sunday

Time Temperature Precipitation Wind Pressure Humidity
00:00 +21°C° 0 mm 1 mps 691 mmHg 83%
01:00 +21°C° 0 mm 1 mps 691 mmHg 83%
02:00 +20°C° 0 mm 1 mps 691 mmHg 84%
03:00 +20°C° 0 mm 1 mps 691 mmHg 84%
04:00 +21°C° 0 mm 1 mps 691 mmHg 82%
05:00 +20°C° 0 mm 2 mps 691 mmHg 80%
06:00 +20°C° 0 mm 2 mps 691 mmHg 78%
07:00 +23°C° 0 mm 2 mps 692 mmHg 67%
08:00 +24°C° 0 mm 2 mps 692 mmHg 56%
09:00 +26°C° 0 mm 2 mps 693 mmHg 46%
10:00 +27°C° 0.1 mm 2 mps 693 mmHg 41%
11:00 +28°C° 0.1 mm 3 mps 694 mmHg 37%
12:00 +29°C° 0.1 mm 3 mps 694 mmHg 33%
13:00 +30°C° 0.2 mm 3 mps 694 mmHg 34%
14:00 +30°C° 0.2 mm 3 mps 693 mmHg 36%
15:00 +30°C° 0.2 mm 3 mps 693 mmHg 37%
16:00 +28°C° 0 mm 3 mps 692 mmHg 43%
17:00 +27°C° 0 mm 3 mps 692 mmHg 49%
18:00 +26°C° 0 mm 3 mps 691 mmHg 54%
19:00 +25°C° 0 mm 2 mps 691 mmHg 57%
20:00 +24°C° 0 mm 1 mps 691 mmHg 59%
21:00 +23°C° 0 mm 1 mps 692 mmHg 61%
22:00 +22°C° 0 mm 1 mps 692 mmHg 64%
23:00 +22°C° 0 mm 1 mps 692 mmHg 67%

Day after tomorrow, 13 July, Monday

Time Temperature Precipitation Wind Pressure Humidity
00:00 +21°C° 0 mm 1 mps 692 mmHg 70%
01:00 +21°C° 0 mm 1 mps 691 mmHg 73%
02:00 +19°C° 0 mm 2 mps 691 mmHg 77%
03:00 +19°C° 0 mm 2 mps 690 mmHg 80%
04:00 +19°C° 0 mm 2 mps 690 mmHg 79%
05:00 +20°C° 0 mm 1 mps 691 mmHg 77%
06:00 +21°C° 0 mm 1 mps 691 mmHg 76%
07:00 +22°C° 0 mm 1 mps 691 mmHg 66%
08:00 +24°C° 0 mm 1 mps 692 mmHg 55%
09:00 +26°C° 0 mm 2 mps 692 mmHg 45%
10:00 +27°C° 0 mm 2 mps 693 mmHg 42%
11:00 +28°C° 0 mm 3 mps 693 mmHg 39%
12:00 +29°C° 0 mm 4 mps 693 mmHg 37%
13:00 +29°C° 0 mm 4 mps 692 mmHg 37%
14:00 +29°C° 0 mm 4 mps 692 mmHg 38%
15:00 +29°C° 0 mm 4 mps 692 mmHg 39%
16:00 +28°C° 0 mm 4 mps 691 mmHg 42%
17:00 +28°C° 0 mm 3 mps 691 mmHg 45%
18:00 +27°C° 0 mm 3 mps 691 mmHg 48%
19:00 +25°C° 0 mm 2 mps 691 mmHg 56%
20:00 +24°C° 0 mm 2 mps 691 mmHg 63%
21:00 +22°C° 0 mm 1 mps 691 mmHg 71%
22:00 +22°C° 0 mm 1 mps 691 mmHg 73%
23:00 +22°C° 0 mm 1 mps 691 mmHg 75%

14 July, Tuesday

Time Temperature Precipitation Wind Pressure Humidity
00:00 +21°C° 0 mm 1 mps 691 mmHg 77%
01:00 +19°C° 0 mm 0 mps 690 mmHg 78%
02:00 +18°C° 0 mm 0 mps 690 mmHg 80%
03:00 +18°C° 0 mm 0 mps 690 mmHg 82%
04:00 +18°C° 0 mm 0 mps 690 mmHg 79%
05:00 +21°C° 0 mm 1 mps 690 mmHg 77%
06:00 +21°C° 0 mm 1 mps 690 mmHg 74%
07:00 +22°C° 0 mm 1 mps 690 mmHg 67%
08:00 +24°C° 0 mm 2 mps 691 mmHg 59%
09:00 +25°C° 0 mm 2 mps 691 mmHg 52%
10:00 +26°C° 0 mm 3 mps 691 mmHg 49%
11:00 +27°C° 0 mm 3 mps 691 mmHg 47%
12:00 +28°C° 0 mm 3 mps 691 mmHg 45%
13:00 +28°C° 0.1 mm 3 mps 691 mmHg 46%
14:00 +28°C° 0.1 mm 3 mps 691 mmHg 46%
15:00 +28°C° 0.1 mm 4 mps 690 mmHg 47%
16:00 +27°C° 0.1 mm 3 mps 690 mmHg 51%
17:00 +26°C° 0.1 mm 3 mps 690 mmHg 54%
18:00 +25°C° 0.1 mm 3 mps 690 mmHg 57%
19:00 +24°C° 0.2 mm 3 mps 690 mmHg 65%
20:00 +22°C° 0.2 mm 3 mps 690 mmHg 73%
21:00 +21°C° 0.2 mm 3 mps 690 mmHg 80%
22:00 +20°C° 0.1 mm 2 mps 690 mmHg 82%
23:00 +21°C° 0.1 mm 1 mps 690 mmHg 84%

15 July, Wednesday

Time Temperature Precipitation Wind Pressure Humidity
00:00 +21°C° 0.1 mm 1 mps 691 mmHg 86%
01:00 +21°C° 0 mm 1 mps 690 mmHg 86%
02:00 +20°C° 0 mm 1 mps 690 mmHg 87%
03:00 +19°C° 0 mm 2 mps 690 mmHg 88%
04:00 +19°C° 0 mm 2 mps 690 mmHg 87%
05:00 +19°C° 0 mm 2 mps 690 mmHg 85%
06:00 +19°C° 0 mm 2 mps 690 mmHg 84%
07:00 +20°C° 0 mm 3 mps 691 mmHg 77%
08:00 +22°C° 0 mm 3 mps 691 mmHg 70%
09:00 +24°C° 0 mm 3 mps 692 mmHg 62%
10:00 +25°C° 0 mm 4 mps 692 mmHg 57%
11:00 +26°C° 0 mm 4 mps 693 mmHg 52%
12:00 +27°C° 0 mm 4 mps 693 mmHg 47%
13:00 +27°C° 0 mm 4 mps 693 mmHg 47%
14:00 +27°C° 0 mm 4 mps 692 mmHg 47%
15:00 +27°C° 0 mm 4 mps 692 mmHg 47%
16:00 +26°C° 0 mm 4 mps 692 mmHg 49%
17:00 +26°C° 0 mm 4 mps 692 mmHg 50%
18:00 +25°C° 0 mm 3 mps 692 mmHg 52%
19:00 +24°C° 0 mm 3 mps 692 mmHg 56%
20:00 +23°C° 0 mm 2 mps 692 mmHg 60%
21:00 +21°C° 0 mm 2 mps 692 mmHg 65%
22:00 +20°C° 0 mm 2 mps 692 mmHg 68%
23:00 +21°C° 0 mm 1 mps 693 mmHg 71%

16 July, Thursday

Time Temperature Precipitation Wind Pressure Humidity
00:00 +20°C° 0 mm 1 mps 693 mmHg 74%
01:00 +20°C° 0 mm 1 mps 692 mmHg 76%
02:00 +20°C° 0 mm 1 mps 692 mmHg 78%
03:00 +17°C° 0 mm 0 mps 692 mmHg 80%
04:00 +20°C° 0 mm 1 mps 692 mmHg 80%
05:00 +20°C° 0 mm 1 mps 692 mmHg 79%
06:00 +20°C° 0 mm 1 mps 692 mmHg 78%
07:00 +22°C° 0 mm 1 mps 693 mmHg 69%
08:00 +23°C° 0 mm 1 mps 693 mmHg 60%
09:00 +25°C° 0 mm 2 mps 694 mmHg 51%
10:00 +26°C° 0 mm 2 mps 694 mmHg 48%
11:00 +27°C° 0 mm 3 mps 694 mmHg 44%
12:00 +28°C° 0 mm 3 mps 694 mmHg 41%
13:00 +28°C° 0 mm 3 mps 694 mmHg 41%
14:00 +29°C° 0 mm 3 mps 693 mmHg 42%
15:00 +29°C° 0 mm 3 mps 693 mmHg 42%
16:00 +28°C° 0 mm 3 mps 692 mmHg 45%
17:00 +27°C° 0 mm 3 mps 692 mmHg 49%
18:00 +26°C° 0 mm 3 mps 692 mmHg 52%
19:00 +25°C° 0 mm 2 mps 692 mmHg 57%
20:00 +24°C° 0 mm 2 mps 692 mmHg 63%
21:00 +23°C° 0 mm 1 mps 692 mmHg 68%
22:00 +22°C° 0 mm 1 mps 692 mmHg 70%
23:00 +22°C° 0 mm 1 mps 691 mmHg 72%
Show more